Regional Weather Roundup
Issued by NWS San Diego, CA

Home | Current Version | Previous Version | Text Only | Print | Product List | Glossary On
Versions: 1 2 3 4 5 6 7 8 9 10 11 12 13 14 15 16 17 18 19 20 21 22 23 24 25 26 27 28 29 30 31 32 33 34 35 36 37 38 39 40 41 42 43 44 45 46 47 48 49 50
000
ASUS46 KSGX 161110
RWRSGX

SAN DIEGO HOURLY WEATHER ROUNDUP
NATIONAL WEATHER SERVICE SAN DIEGO CA
400 AM PDT WED APR 16 2014

NOTE: "FAIR" INDICATES FEW OR NO CLOUDS BELOW 12,000 FEET WITH NO
SIGNIFICANT WEATHER AND/OR OBSTRUCTIONS TO VISIBILITY.

CAZ042-043-060-061-PZZ750-775-161200-

GREATER SAN DIEGO AREA

CITY           SKY/WX    TMP DP  RH WIND       PRES   REMARKS
LINDBERGH FLD  CLOUDY    59  52  77 S7        29.88S
NATIONAL CITY    N/A     59  54  84 S1        29.87F
CHULA VISTA      N/A     59  55  86 CALM      29.81S
IMPERIAL BEACH CLOUDY    57  53  86 CALM      29.87F
BROWN FIELD    CLOUDY    55  51  86 SW5       29.86S
MIRAMAR MCAS   CLOUDY    57  50  77 W3        29.86S
MONTGOMERY FLD CLOUDY    56  52  86 S6        29.87S

$$

NORTH SAN DIEGO COUNTY

CITY           SKY/WX    TMP DP  RH WIND       PRES   REMARKS
CAMP PENDLETON CLOUDY    57  51  80 CALM      29.86S
RED BEACH      CLOUDY    58  52  80 CALM      29.86S
OCEANSIDE AP   CLOUDY    57  52  83 CALM      29.85S
VISTA            N/A     55  51  88 CALM      29.85S
CARLSBAD       CLOUDY    57  52  83 CALM      29.85F
DEL MAR          N/A     56  53  89 CALM      29.87F
LA JOLLA SCRIP   N/A     56  54  93 S2        29.84S
FALLBROOK        N/A     55  55 100 CALM      29.86F
ESCONDIDO        N/A     55  52  88 SE1       29.86F
SAN MARCOS       N/A     55  50  85 CALM      29.84F
POWAY            N/A     55  52  89 CALM      29.87F
R. PENASQUITOS   N/A     56  53  90 CALM      29.86F

$$

EAST SAN DIEGO COUNTY

CITY           SKY/WX    TMP DP  RH WIND       PRES   REMARKS
RAMONA         FOG       47  46  97 CALM      29.85F VSB 1/4
SANTEE LAKES     N/A     56  53  90 CALM      29.89S
GILLESPIE FLD  CLOUDY    57  54  88 SW3       29.88S FOG
LA MESA          N/A     56  54  92 CALM      29.80F
JAMUL            N/A     52  51  96 CALM      29.84S
DESCANSO N       N/A     46  29  52 E1        29.72F
CAMPO            N/A     38  30  73 NE6       29.84F WCI  33

$$

ORANGE COUNTY AND THE LOS ANGELES BASIN

CITY           SKY/WX    TMP DP  RH WIND       PRES   REMARKS
JOHN WAYNE AP  CLOUDY    59  51  75 SE3       29.85F
LAGUNA BEACH     N/A     58  54  87 E3        29.83F
LAKE FOREST FR   N/A     52  48  85 CALM      29.74F
SANTA ANA        N/A     58  54  85 CALM      29.81F
HUNTINGTON BCH   N/A     58  54  88 SE2       29.86F
LOS ALAMITOS   CLOUDY    58  52  81 E5        29.86S
FULLERTON      CLOUDY    59  51  75 E5        29.85S
LONG BEACH     CLOUDY    59  50  72 E6        29.85F
L.A. AP        MOCLDY    58  52  80 CALM      29.86S
L.A. DOWNTOWN  CLOUDY    58  52  80 CALM      29.86S

$$

THE INLAND EMPIRE

CITY           SKY/WX    TMP DP  RH WIND       PRES   REMARKS
CORONA         CLEAR     52  51  96 W5        29.86S
CHINO          CLEAR     50  49  96 W3        29.86S FOG
ONTARIO        PTCLDY    54  51  90 W5        29.84F FOG
RIVERSIDE AP   CLEAR     54  50  86 CALM      29.84F
RIV CYN CREST    N/A     55  53  93 CALM      29.81F
MORENO VALLEY    N/A     53  42  66 CALM      27.95S
MARCH ARB      CLEAR     49  39  69 CALM      29.85S
HORSETHIEF CYN   N/A     51  33  51 SW1       29.83S
PERRIS           N/A     54  49  84 SE2         N/A
MENIFEE          N/A     53  51  90 CALM      29.90S
HEMET EAST       N/A     56  25  31 CALM      29.81S
TEMECULA         N/A     50  49  93 CALM      29.82S

$$

SAN BERNARDINO AND RIVERSIDE COUNTY MOUNTAINS

CITY           SKY/WX    TMP DP  RH WIND       PRES   REMARKS
BIG BEAR AP    CLEAR     34  28  80 CALM      30.01F
BIG BEAR SHEA    N/A     35  19  52 CALM      29.84R
ANGELUS OAKS     N/A     46  17  31 MISG      29.73F
PINE COVE        N/A     48  26  41 N3        29.79F

$$

SOUTHERN DESERT INCLUDING THE COACHELLA VALLEY

CITY           SKY/WX    TMP DP  RH WIND       PRES   REMARKS
PALM SPRINGS   CLEAR     68  35  29 CALM      29.72S
THOUSAND PALMS   N/A     75  28  17 N12       29.68S
PALM DESERT      N/A     65  44  47 CALM      27.99S
THERMAL        CLEAR     66  32  28 W6        29.68S
BLYTHE         CLEAR     64  16  15 NW7       29.70S
IMPERIAL AP    CLEAR     63  32  31 W7        29.69S
EL CENTRO NAS  CLEAR     65  26  23 NW10      29.69F
YUMA AZ        CLEAR     62  32  32 S3        29.70F

$$

UPPER DESERT

CITY           SKY/WX    TMP DP  RH WIND       PRES   REMARKS
VICTORVILLE AP CLEAR     54  25  32 S6        29.84F
HESPERIA         N/A     55  32  42 CALM      29.89F
PALMDALE       CLEAR     56  30  37 SW12      29.86S
LANCASTER      CLEAR     60  30  32 W15       29.84F
EDWARDS AFB    CLEAR     58  30  34 SW13      29.81S
DAGGETT        CLEAR     64  27  24 W10       29.79S
29 PALMS N     CLEAR     64  26  23 NW7       29.85F
NEEDLES        CLEAR     66   9  10 CALM      29.72S

$$

REGIONAL REPORTS

CITY           SKY/WX    TMP DP  RH WIND       PRES   REMARKS
SANTA BARBARA  CLEAR     52  50  93 CALM      29.84R
SANDBERG       CLEAR     56  32  40 N13G23    29.96S
MT. WILSON       N/A     52  21  30 MISG        N/A
LAS VEGAS NV   PTCLDY    62  21  20 S9        29.72S
PHOENIX AZ     CLEAR     64  21  19 E12       29.72F
TIJUANA        CLOUDY    55  50  82 CALM      29.89S FOG

$$

OFFSHORE ISLANDS

CITY           SKY/WX    TMP DP  RH WIND       PRES   REMARKS
CATALINA ARPT  CLEAR     50  48  93 SW5       29.86S FOG
SAN NICOLAS IS CLOUDY   N/A N/A N/A W12       29.83S HAZE

$$

MARINE AND OFFSHORE BUOY REPORTS

STATION/POSITION SKY/WX   TEMP    WIND        PRES    SWELL
                          AIR SEA DIR/SP/G            HT/PER/DIR
                          (F)     (DEG/KT/KT) (MB)    (FT/S/D)
S CLEMENTE BASIN           59 63  280/  8/ 10 1010.9F   3/270/15
SAN NICOLAS IS.               58                N/A     5/310/11
SO. S. ROSA ISLA           56 57  320/ 23/ 29 1010.5R   7/11
W. S. BARBARA CH           54 53  330/ 23/ 27 1010.4S   8/310/11
S. MONICA BASIN            58 60  100/ 14/ 16 1010.4S   3/270/ 7
S PEDRO CHANNEL               58                N/A     2/270/13
DANA POINT                    60                N/A     2/190/15
CMP PENDLETON NS              58                N/A     2/220/17
OCEANSIDE OFFSHR              60                N/A     2/200/17
TORREY PINES OTR              61                N/A     2/240/14
LA JOLLA 1                 57 57  210/  6/  8 1011.3S
MISSION BAY BUOY              61                N/A     2/220/15
SAN DIEGO BAY                 64              1011.5F
POINT LOMA SOUTH              62                N/A     2/220/15

$$




USA.gov is the U.S. government's official web portal to all federal, state and local government web resources and services.